[[{"header":{"parameterUnit":"m.s-1","parameterCategory":1,"la1":30.2991,"la2":30.254,"lo1":-89.0895,"lo2":-89.0444,"dy":0.0017,"dx":0.0017,"nx":28,"ny":28,"refTime":"2024-10-02T09:00:00:Z","depth":0,"parameterNumber":2,"parameterNumberName":"U-component_of_WINDS"},"data":[0,0,0,0,0,0,0,0,0,0,0,0,0,0,0,0,0,0,0,0,0,0,0,0,0,0,0,0,0,0,0,0,0,0,0,0,0,0,0,0,0,0,0,0,0,0,0,0,0,0,0,0,0,0,0,0,0,0,-4.2041,-4.2042,0,-4.2126,-4.2127,-4.2128,-4.2063,-4.2061,-4.2058,-4.2055,-4.2139,-4.2144,-4.2149,0,0,0,0,0,0,0,0,0,0,0,0,0,-4.182,-4.1824,-4.2041,-4.2042,-4.2043,-4.2126,-4.2127,-4.2128,-4.2064,-4.206,-4.2057,-4.2054,-4.2138,-4.2143,-4.2149,0,0,0,0,0,0,0,0,0,0,0,0,0,-4.1911,-4.1826,-4.2041,-4.2021,-4.202,-4.2126,-4.2127,-4.2129,-4.2065,-4.206,-4.2056,-4.2052,-4.2136,-4.2143,-4.215,-4.2279,0,0,-4.2172,-4.2175,0,0,0,0,0,0,0,0,-4.1906,-4.192,-4.2023,-4.2023,-4.2022,-4.208,-4.208,-4.2179,-4.2066,-4.2048,-4.2055,-4.205,-4.2123,-4.2131,-4.2156,-4.2283,-4.2286,-4.2173,-4.2177,-4.218,-4.2182,0,0,0,0,0,0,0,-4.19,-4.1915,-4.2075,-4.2025,-4.2024,-4.2007,-4.2015,-4.2098,-4.2107,-4.2049,-4.2044,-4.2056,-4.2121,-4.2149,-4.2157,-4.2287,-4.2172,-4.2179,-4.2183,-4.2186,-4.2523,-4.2527,0,0,0,0,0,0,-4.1896,-4.1911,-4.2072,-4.2077,-4.1953,-4.2014,-4.2024,-4.2065,-4.2106,-4.2109,-4.2059,-4.2052,-4.2139,-4.2149,-4.216,-4.2312,-4.218,-4.2187,-4.2191,-4.2518,-4.2524,-4.2529,0,0,0,0,0,0,-4.1891,-4.1911,-4.2068,-4.1993,-4.2012,-4.2023,-4.207,-4.2069,-4.2097,-4.2114,-4.2115,-4.2086,-4.2136,-4.215,-4.2249,-4.2314,-4.219,-4.2197,-4.2513,-4.252,-4.2526,-4.2617,0,0,0,0,0,0,-4.1885,-4.191,-4.1959,-4.1994,-4.2016,-4.2158,-4.2074,-4.2074,-4.211,-4.2102,-4.2139,-4.2141,-4.2133,-4.2239,-4.2257,-4.2321,-4.2203,-4.2507,-4.2516,-4.2524,-4.2608,-4.2626,-4.2642,0,0,0,0,0,-4.1878,-4.1981,-4.1962,-4.1982,-4.2078,-4.2162,-4.2174,-4.2163,-4.2115,-4.2164,-4.2176,-4.214,-4.2305,-4.225,-4.2269,-4.2337,-4.2503,-4.2513,-4.2523,-4.2601,-4.2623,-4.2641,0,0,0,0,0,0,-4.1952,-4.1985,-4.1965,-4.2083,-4.212,-4.215,-4.2212,-4.2187,-4.2237,-4.2228,-4.2212,-4.2221,-4.2325,-4.2342,-4.228,-4.2463,-4.2396,-4.241,-4.2448,-4.2469,-4.2485,-4.2478,-4.2209,0,0,0,0,0,-4.1983,-4.2048,-4.2074,-4.2175,-4.2195,-4.2201,-4.2237,-4.2226,-4.2263,-4.2278,-4.2296,-4.2333,-4.2393,-4.2432,-4.2488,-4.2612,-4.2618,-4.2668,-4.2685,-4.2698,-4.271,-4.2774,-4.2796,-4.2562,-4.2562,-4.2562,0,0,-4.2045,-4.2072,-4.2114,-4.2191,-4.2218,-4.2285,-4.2214,-4.2289,-4.2338,-4.2289,-4.2384,-4.2399,-4.2439,-4.2551,-4.2601,-4.2567,-4.2776,-4.2711,-4.2722,-4.2726,-4.2787,-4.2809,-4.2829,-4.2569,-4.2568,-4.2567,0,0,-4.2193,-4.2221,-4.2308,-4.2338,-4.2381,-4.2384,-4.2405,-4.244,-4.2448,-4.2544,-4.2508,-4.2567,-4.267,-4.27,-4.2728,-4.2889,-4.2857,-4.2908,-4.2993,-4.3057,-4.3075,-4.3091,-4.3146,-4.3166,-4.2921,-4.2921,-4.2921,0,-4.2265,-4.2366,-4.2356,-4.2433,-4.2467,-4.2428,-4.2515,-4.2544,-4.2602,-4.2626,-4.2589,-4.2718,-4.2742,-4.2859,-4.2899,-4.2924,-4.2946,-4.2902,-4.3073,-4.309,-4.3104,-4.3157,-4.3178,-4.2926,-4.2926,-4.2925,-4.2925,0,-4.2451,-4.2522,-4.2587,-4.2645,-4.2687,-4.2769,-4.277,-4.2814,-4.28,-4.2807,-4.2904,-4.2933,-4.2993,-4.3021,-4.3008,-4.3136,-4.3114,-4.3076,-4.3007,-4.3133,-4.3181,-4.3201,-4.2934,-4.2932,-4.2931,-4.2929,0,0,-4.2645,-4.2699,-4.2722,-4.2748,-4.2794,-4.2847,-4.2927,-4.2987,-4.3024,-4.3067,-4.3132,-4.3221,-4.3186,-4.3219,-4.3209,-4.3265,-4.3388,-4.3219,-4.322,-4.3247,-4.3529,-4.3555,-4.3578,-4.3369,-4.3373,-4.3376,-4.3524,0,-4.2793,-4.2933,-4.2927,-4.3057,-4.3121,-4.3085,-4.3155,-4.319,-4.3199,-4.3254,-4.3264,-4.3326,-4.3277,-4.3296,-4.335,-4.3361,-4.3444,-4.3351,-4.3427,-4.3429,-4.3414,-4.3604,-4.3632,-4.377,-4.3543,-4.3547,-4.3549,0,-4.2984,-4.3034,-4.317,-4.3206,-4.3233,-4.3295,-4.3349,-4.3403,-4.3442,-4.3445,-4.3482,-4.3463,-4.3543,-4.3475,-4.3583,-4.3521,-4.3552,-4.3562,-4.3567,-4.3571,-4.3494,-4.361,-4.3815,-4.3834,-4.3579,-4.3577,-4.3575,0,-4.3108,-4.321,-4.3304,-4.3328,-4.3373,-4.3417,-4.3437,-4.3472,-4.3509,-4.3557,-4.358,-4.3636,-4.3666,-4.371,-4.3707,-4.3658,-4.3816,-4.3748,-4.3818,-4.3818,-4.385,-4.3847,-4.406,-4.3876,-4.3876,-4.3875,-4.3875,0,-4.3272,-4.3356,-4.3361,-4.3418,-4.3511,-4.3504,-4.3596,-4.3612,-4.3643,-4.3702,-4.3676,-4.3732,-4.3726,-4.3782,-4.3781,-4.3869,-4.3884,-4.3887,-4.3884,-4.3887,-4.3886,-4.3904,-4.3893,-4.3881,-4.388,-4.3879,-4.3878,0,-4.3425,-4.3432,-4.3532,-4.3567,-4.3577,-4.3644,-4.3673,-4.3727,-4.3736,-4.3811,-4.3828,-4.384,-4.3905,-4.3907,-4.3982,-4.398,-4.4087,-4.4076,-4.4074,-4.4071,-4.414,-4.4132,-4.4368,-4.4397,-4.4198,-4.42,-4.4202,0,-4.3527,-4.3591,-4.3633,-4.3672,-4.3695,-4.3757,-4.3795,-4.379,-4.383,-4.388,-4.3928,-4.3991,-4.404,-4.4145,-4.416,-4.4216,-4.4204,-4.4283,-4.4212,-4.4212,-4.4201,-4.4196,-4.4201,-4.4295,-4.4298,-4.43,-4.4301,0,-4.3707,-4.3707,-4.3763,-4.382,-4.3866,-4.391,-4.3952,-4.3985,-4.3985,-4.4031,-4.4097,-4.4136,-4.4213,-4.4274,-4.433,-4.4349,-4.4325,-4.4324,-4.4343,-4.4344,-4.4339,-4.4339,-4.4108,-4.4317,-4.4316,-4.4315,-4.4314,-4.4313,-4.3835,-4.389,-4.3928,-4.3991,-4.4022,-4.4061,-4.4114,-4.4129,-4.4185,-4.4247,-4.4242,-4.4315,-4.4352,-4.4424,-4.4448,-4.4505,-4.4477,-4.4505,-4.4511,-4.4517,-4.4523,-4.4333,-4.4515,-4.4515,-4.4514,-4.4514,-4.4514,0,-4.401,-4.4034,-4.4092,-4.4151,-4.42,-4.4176,-4.422,-4.4263,-4.4328,-4.4365,-4.4415,-4.4491,-4.4551,-4.4572,-4.463,-4.4671,-4.4661,-4.4686,-4.4681,-4.4686,-4.4546,-4.4523,-4.4693,-4.4693,-4.4693,-4.4693,-4.4693,-4.4693,-4.4107,-4.4198,-4.4203,-4.4309,-4.4332,-4.4404,-4.4431,-4.4467,-4.4497,-4.4583,-4.4634,-4.4647,-4.4678,-4.4738,-4.4792,-4.4796,-4.4817,-4.4846,-4.4846,-4.4714,-4.4696,-4.4678,-4.4656,-4.4852,-4.4852,-4.498,-4.4981,-4.4982]},{"header":{"parameterUnit":"m.s-1","parameterCategory":1,"la1":30.2991,"la2":30.254,"lo1":-89.0895,"lo2":-89.0444,"dy":0.0017,"dx":0.0017,"nx":28,"ny":28,"refTime":"2024-10-02T09:00:00:Z","depth":0,"parameterNumber":3,"parameterNumberName":"V-component_of_WINDS"},"data":[0,0,0,0,0,0,0,0,0,0,0,0,0,0,0,0,0,0,0,0,0,0,0,0,0,0,0,0,0,0,0,0,0,0,0,0,0,0,0,0,0,0,0,0,0,0,0,0,0,0,0,0,0,0,0,0,0,0,-0.8608,-0.8609,0,-0.8641,-0.8641,-0.8642,-0.8673,-0.8674,-0.8674,-0.8675,-0.8705,-0.8706,-0.8706,0,0,0,0,0,0,0,0,0,0,0,0,0,-0.857,-0.8571,-0.8608,-0.8609,-0.8609,-0.8641,-0.8641,-0.8642,-0.8673,-0.8674,-0.8674,-0.8675,-0.8705,-0.8706,-0.8706,0,0,0,0,0,0,0,0,0,0,0,0,0,-0.8593,-0.8571,-0.8608,-0.8629,-0.8631,-0.8641,-0.8641,-0.8642,-0.8673,-0.8674,-0.8675,-0.8675,-0.8705,-0.8706,-0.8706,-0.8698,0,0,-0.8708,-0.8709,0,0,0,0,0,0,0,0,-0.8592,-0.8595,-0.8625,-0.8627,-0.863,-0.8654,-0.8639,-0.8661,-0.8673,-0.8657,-0.8675,-0.8675,-0.8688,-0.869,-0.8694,-0.8699,-0.8701,-0.8708,-0.8709,-0.8709,-0.8709,0,0,0,0,0,0,0,-0.859,-0.8593,-0.8621,-0.8626,-0.8629,-0.8635,-0.8639,-0.8643,-0.8668,-0.8659,-0.8661,-0.8665,-0.8689,-0.8694,-0.8695,-0.8701,-0.8708,-0.8709,-0.8709,-0.871,-0.8699,-0.8698,0,0,0,0,0,0,-0.8586,-0.8592,-0.862,-0.8622,-0.8612,-0.8636,-0.864,-0.8645,-0.8668,-0.8673,-0.8664,-0.8666,-0.8692,-0.8695,-0.8696,-0.8687,-0.8709,-0.871,-0.871,-0.8699,-0.8699,-0.8698,0,0,0,0,0,0,-0.8585,-0.8588,-0.8619,-0.8608,-0.8612,-0.8636,-0.8641,-0.8646,-0.8651,-0.8673,-0.8677,-0.8664,-0.8693,-0.8696,-0.8697,-0.8688,-0.871,-0.8711,-0.87,-0.8699,-0.8698,-0.8668,0,0,0,0,0,0,-0.8584,-0.8588,-0.8586,-0.8607,-0.8613,-0.862,-0.8641,-0.8646,-0.8652,-0.8655,-0.8674,-0.8678,-0.8694,-0.8696,-0.8698,-0.869,-0.8711,-0.8701,-0.87,-0.8698,-0.867,-0.8666,-0.8663,0,0,0,0,0,-0.8582,-0.8576,-0.8585,-0.8589,-0.8611,-0.8619,-0.8622,-0.8641,-0.8651,-0.8648,-0.8662,-0.8677,-0.8689,-0.8696,-0.8698,-0.869,-0.8702,-0.87,-0.8699,-0.8671,-0.8667,-0.8663,0,0,0,0,0,0,-0.8551,-0.8579,-0.859,-0.859,-0.8602,-0.8625,-0.8622,-0.8636,-0.8645,-0.8647,-0.8669,-0.8673,-0.8671,-0.8681,-0.8688,-0.8682,-0.8697,-0.8696,-0.8676,-0.8672,-0.8668,-0.8666,-0.8712,0,0,0,0,0,-0.8545,-0.855,-0.8574,-0.8572,-0.8577,-0.8598,-0.8603,-0.8616,-0.8629,-0.8634,-0.8648,-0.866,-0.8666,-0.8669,-0.8677,-0.8672,-0.8675,-0.8667,-0.8664,-0.8661,-0.8659,-0.8656,-0.8652,-0.8693,-0.8693,-0.8693,0,0,-0.8531,-0.8546,-0.8549,-0.8566,-0.8577,-0.8581,-0.8602,-0.8606,-0.8609,-0.8635,-0.8637,-0.8647,-0.8661,-0.8659,-0.8659,-0.8667,-0.8649,-0.8659,-0.8656,-0.8656,-0.8654,-0.865,-0.8646,-0.8692,-0.8692,-0.8692,0,0,-0.8507,-0.852,-0.8519,-0.853,-0.8546,-0.856,-0.856,-0.858,-0.8588,-0.8591,-0.861,-0.8613,-0.8624,-0.8632,-0.8638,-0.8617,-0.863,-0.8618,-0.86,-0.8596,-0.8593,-0.859,-0.8581,-0.8578,-0.8617,-0.8617,-0.8617,0,-0.8488,-0.8496,-0.8517,-0.8519,-0.8526,-0.855,-0.8548,-0.8557,-0.8574,-0.8577,-0.8586,-0.8599,-0.8611,-0.861,-0.8605,-0.8609,-0.8608,-0.8616,-0.8592,-0.8589,-0.8587,-0.8579,-0.8575,-0.8615,-0.8615,-0.8615,-0.8616,0,-0.847,-0.8475,-0.8472,-0.8489,-0.8495,-0.8495,-0.8515,-0.8519,-0.8531,-0.8544,-0.8545,-0.856,-0.8569,-0.857,-0.8583,-0.8571,-0.8575,-0.8588,-0.8603,-0.8581,-0.8574,-0.8571,-0.8613,-0.8613,-0.8614,-0.8614,0,0,-0.8428,-0.8456,-0.8454,-0.8462,-0.8481,-0.8485,-0.8486,-0.8496,-0.8497,-0.8508,-0.8509,-0.8517,-0.8528,-0.8534,-0.8548,-0.8545,-0.8525,-0.8558,-0.8558,-0.855,-0.8512,-0.8502,-0.8498,-0.8535,-0.8534,-0.8534,-0.851,0,-0.8407,-0.8411,-0.8429,-0.8427,-0.8431,-0.8453,-0.8454,-0.8465,-0.8477,-0.8481,-0.8493,-0.8498,-0.8513,-0.8517,-0.8515,-0.8528,-0.8518,-0.853,-0.8534,-0.8534,-0.8529,-0.8494,-0.8484,-0.8461,-0.8508,-0.8507,-0.8507,0,-0.8383,-0.8393,-0.8391,-0.8409,-0.8412,-0.8412,-0.8422,-0.8426,-0.8439,-0.8447,-0.8454,-0.8469,-0.847,-0.8485,-0.8485,-0.8493,-0.8496,-0.8502,-0.8502,-0.8502,-0.8518,-0.8492,-0.8454,-0.845,-0.8503,-0.8503,-0.8503,0,-0.8351,-0.8364,-0.8364,-0.837,-0.8391,-0.8391,-0.8399,-0.8413,-0.8417,-0.8425,-0.8428,-0.8436,-0.8441,-0.8446,-0.8462,-0.8472,-0.846,-0.8477,-0.8466,-0.8466,-0.8462,-0.8462,-0.8423,-0.8465,-0.8465,-0.8465,-0.8465,0,-0.8325,-0.8323,-0.835,-0.835,-0.8348,-0.8368,-0.8365,-0.8376,-0.8387,-0.8389,-0.8408,-0.8409,-0.8431,-0.8434,-0.8447,-0.8444,-0.8446,-0.8452,-0.8455,-0.845,-0.8449,-0.8451,-0.8453,-0.8465,-0.8465,-0.8465,-0.8465,0,-0.8289,-0.8307,-0.8309,-0.8329,-0.8334,-0.8331,-0.8348,-0.8348,-0.836,-0.8362,-0.8363,-0.8383,-0.8387,-0.8404,-0.8413,-0.8421,-0.8414,-0.8421,-0.841,-0.8412,-0.84,-0.84,-0.836,-0.8355,-0.8401,-0.8401,-0.84,0,-0.8271,-0.827,-0.829,-0.8292,-0.83,-0.8305,-0.8309,-0.8329,-0.8333,-0.8346,-0.8344,-0.8351,-0.8356,-0.8362,-0.8376,-0.8382,-0.8389,-0.8374,-0.839,-0.8384,-0.8387,-0.8387,-0.8386,-0.8371,-0.837,-0.837,-0.8369,0,-0.8237,-0.8245,-0.8252,-0.826,-0.8265,-0.8273,-0.8282,-0.8283,-0.8305,-0.8308,-0.8313,-0.8317,-0.8326,-0.8331,-0.8339,-0.8347,-0.8361,-0.8364,-0.8362,-0.8356,-0.8349,-0.8351,-0.84,-0.8365,-0.8365,-0.8366,-0.8366,-0.8366,-0.8208,-0.8208,-0.8221,-0.8227,-0.8236,-0.8243,-0.8244,-0.8257,-0.8261,-0.827,-0.8282,-0.8285,-0.8296,-0.8309,-0.8315,-0.8317,-0.8325,-0.8322,-0.8321,-0.832,-0.8316,-0.8349,-0.8319,-0.8319,-0.8319,-0.8319,-0.8319,0,-0.8174,-0.8183,-0.8189,-0.82,-0.8204,-0.8218,-0.8228,-0.8231,-0.8233,-0.8243,-0.8248,-0.8253,-0.8258,-0.8272,-0.8278,-0.8277,-0.8283,-0.8278,-0.8278,-0.8279,-0.831,-0.831,-0.8272,-0.8272,-0.8272,-0.8272,-0.8272,-0.8272,-0.8156,-0.8155,-0.8165,-0.8169,-0.8178,-0.8182,-0.8186,-0.8193,-0.8201,-0.8205,-0.821,-0.8219,-0.823,-0.8237,-0.8242,-0.8246,-0.8246,-0.8238,-0.8244,-0.8272,-0.8277,-0.8281,-0.8282,-0.8239,-0.8239,-0.8213,-0.8213,-0.8213]}]]